| time (UTC) | temp C | wind direction | speed KPH | gust KPH | rain 1hr cm | rain 24hr cm | rain mn cm | humidity % | barometer mb |
| 20260906075816 | 22 | 50 | 9.7 | 11.3 | 0.00 | 0.00 | 0.00 | 94 | 1010.9 |
| 20260906075316 | 22 | 74 | 1.6 | 3.2 | 0.00 | 0.00 | 0.00 | 94 | 1011.0 |
| 20260906074811 | 22 | 46 | 3.2 | 6.4 | 0.00 | 0.00 | 0.00 | 94 | 1011.1 |
| 20260906074311 | 22 | 44 | 4.8 | 6.4 | 0.00 | 0.00 | 0.00 | 94 | 1011.2 |
| 20260906073810 | 22 | 68 | 3.2 | 3.2 | 0.00 | 0.00 | 0.00 | 94 | 1011.0 |
| 20260906073305 | 22 | 54 | 6.4 | 6.4 | 0.00 | 0.00 | 0.00 | 94 | 1011.1 |
| 20260906072801 | 22 | 75 | 3.2 | 4.8 | 0.00 | 0.00 | 0.00 | 94 | 1010.8 |
| 20260906072257 | 22 | 47 | 6.4 | 6.4 | 0.00 | 0.00 | 0.00 | 94 | 1010.9 |
| 20260906071752 | 22 | 55 | 3.2 | 4.8 | 0.00 | 0.00 | 0.00 | 94 | 1011.0 |
| 20260906071252 | 22 | 41 | 6.4 | 9.7 | 0.00 | 0.00 | 0.00 | 94 | 1011.2 |
| 20260906070749 | 22 | 69 | 3.2 | 3.2 | 0.00 | 0.00 | 0.00 | 94 | 1011.2 |
| 20260906070244 | 22 | 92 | 3.2 | 4.8 | 0.00 | 0.00 | 0.00 | 94 | 1011.2 |
| 20260906065744 | 22 | 36 | 1.6 | 3.2 | 0.00 | 0.00 | 0.00 | 94 | 1011.2 |
| 20260906065239 | 22 | 73 | 1.6 | 3.2 | 0.00 | 0.00 | 0.00 | 94 | 1011.2 |
| 20260906064735 | 22 | 72 | 1.6 | 3.2 | 0.00 | 0.00 | 0.00 | 94 | 1011.3 |
| 20260906064230 | 22 | 80 | 3.2 | 3.2 | 0.00 | 0.00 | 0.00 | 94 | 1011.0 |
| 20260906063725 | 22 | 80 | 3.2 | 4.8 | 0.00 | 0.00 | 0.00 | 94 | 1011.0 |
| 20260906063221 | 22 | 56 | 1.6 | 1.6 | 0.00 | 0.00 | 0.00 | 94 | 1011.4 |
| 20260906062716 | 22 | 84 | 3.2 | 3.2 | 0.00 | 0.00 | 0.00 | 94 | 1011.3 |
| 20260906062215 | 22 | 77 | 3.2 | 4.8 | 0.00 | 0.00 | 0.00 | 94 | 1011.3 |
| 20260906061711 | 22 | 85 | 1.6 | 1.6 | 0.00 | 0.00 | 0.00 | 94 | 1011.3 |
| 20260906061207 | 22 | 55 | 1.6 | 1.6 | 0.00 | 0.00 | 0.00 | 94 | 1011.3 |
| 20260906060703 | 22 | 57 | 1.6 | 3.2 | 0.00 | 0.00 | 0.00 | 93 | 1011.5 |
| 20260906060200 | 22 | 76 | 3.2 | 3.2 | 0.00 | 0.00 | 0.00 | 93 | 1011.3 |
| 20260906055655 | 22 | 58 | 1.6 | 3.2 | 0.00 | 0.00 | 0.00 | 93 | 1011.3 |
| 20260906055150 | 22 | 55 | 1.6 | 1.6 | 0.00 | 0.00 | 0.00 | 93 | 1011.2 |
| 20260906054646 | 22 | 48 | 3.2 | 4.8 | 0.00 | 0.00 | 0.00 | 94 | 1011.1 |
| 20260906054140 | 22 | 54 | 3.2 | 4.8 | 0.00 | 0.00 | 0.00 | 94 | 1011.2 |
| 20260906053637 | 22 | 42 | 1.6 | 3.2 | 0.00 | 0.00 | 0.00 | 93 | 1011.2 |
| 20260906053138 | 22 | 47 | 1.6 | 1.6 | 0.00 | 0.00 | 0.00 | 93 | 1011.0 |
| 20260906052633 | 22 | 66 | 3.2 | 3.2 | 0.00 | 0.00 | 0.00 | 93 | 1011.0 |
| 20260906052130 | 23 | 48 | 1.6 | 1.6 | 0.00 | 0.00 | 0.00 | 93 | 1011.0 |
| 20260906051626 | 23 | 72 | 1.6 | 1.6 | 0.00 | 0.00 | 0.00 | 92 | 1011.0 |
| 20260906051126 | 23 | 55 | 1.6 | 1.6 | 0.00 | 0.00 | 0.00 | 92 | 1011.1 |
| 20260906050621 | 23 | 76 | 3.2 | 3.2 | 0.00 | 0.00 | 0.00 | 92 | 1011.0 |
| 20260906050116 | 23 | 63 | 3.2 | 4.8 | 0.00 | 0.00 | 0.00 | 92 | 1011.0 |
| 20260906045614 | 23 | 46 | 3.2 | 3.2 | 0.00 | 0.00 | 0.00 | 92 | 1011.0 |
| 20260906045110 | 23 | 53 | 3.2 | 4.8 | 0.00 | 0.00 | 0.00 | 93 | 1011.0 |
| 20260906044606 | 23 | 42 | 3.2 | 3.2 | 0.00 | 0.00 | 0.00 | 93 | 1010.9 |
| 20260906044101 | 23 | 54 | 4.8 | 4.8 | 0.00 | 0.00 | 0.00 | 93 | 1010.9 |
| 20260906043557 | 23 | 53 | 1.6 | 1.6 | 0.00 | 0.00 | 0.00 | 93 | 1010.8 |
| 20260906043052 | 23 | 51 | 1.6 | 1.6 | 0.00 | 0.00 | 0.00 | 92 | 1011.0 |
| 20260906042551 | 23 | 62 | 1.6 | 1.6 | 0.00 | 0.00 | 0.00 | 92 | 1010.6 |
| 20260906042046 | 23 | 65 | 1.6 | 3.2 | 0.00 | 0.00 | 0.00 | 92 | 1010.6 |
| 20260906041543 | 23 | 65 | 0.0 | 0.0 | 0.00 | 0.00 | 0.00 | 92 | 1010.7 |
| 20260906041037 | 23 | 46 | 1.6 | 1.6 | 0.00 | 0.00 | 0.00 | 91 | 1010.7 |
| 20260906040532 | 23 | 56 | 0.0 | 0.0 | 0.00 | 0.00 | 0.00 | 91 | 1010.6 |
| 20260906040028 | 23 | 75 | 0.0 | 0.0 | 0.00 | 0.00 | 0.00 | 90 | 1010.7 |
| 20260906035523 | 24 | 75 | 0.0 | 0.0 | 0.00 | 0.00 | 0.00 | 91 | 1010.6 |
| 20260906035019 | 24 | 61 | 1.6 | 3.2 | 0.00 | 0.00 | 0.00 | 91 | 1010.5 |
| 20260906034518 | 24 | 60 | 0.0 | 1.6 | 0.00 | 0.00 | 0.00 | 91 | 1010.6 |
| 20260906034013 | 24 | 74 | 1.6 | 3.2 | 0.00 | 0.00 | 0.00 | 90 | 1010.6 |
| 20260906033508 | 24 | 67 | 1.6 | 1.6 | 0.00 | 0.00 | 0.00 | 90 | 1010.6 |
| 20260906033004 | 25 | 64 | 4.8 | 6.4 | 0.00 | 0.00 | 0.00 | 89 | 1010.5 |
| 20260906032501 | 25 | 35 | 3.2 | 4.8 | 0.00 | 0.00 | 0.00 | 89 | 1010.4 |
| 20260906032000 | 25 | 39 | 3.2 | 3.2 | 0.00 | 0.00 | 0.00 | 88 | 1010.4 |
| 20260906031456 | 25 | 31 | 4.8 | 4.8 | 0.00 | 0.00 | 0.00 | 88 | 1010.4 |
| 20260906030951 | 25 | 52 | 3.2 | 3.2 | 0.00 | 0.00 | 0.00 | 88 | 1010.3 |
| 20260906030446 | 25 | 54 | 9.7 | 11.3 | 0.00 | 0.00 | 0.00 | 87 | 1010.3 |
| 20260906025940 | 25 | 52 | 8.0 | 9.7 | 0.00 | 0.00 | 0.00 | 87 | 1010.3 |
| 20260906025440 | 25 | 49 | 8.0 | 9.7 | 0.00 | 0.00 | 0.00 | 87 | 1010.4 |
| 20260906024939 | 25 | 28 | 8.0 | 9.7 | 0.00 | 0.00 | 0.00 | 87 | 1010.4 |
| 20260906024439 | 25 | 63 | 4.8 | 4.8 | 0.00 | 0.00 | 0.00 | 88 | 1010.2 |
| 20260906023939 | 25 | 68 | 4.8 | 6.4 | 0.00 | 0.00 | 0.00 | 89 | 1010.1 |
| 20260906023436 | 25 | 30 | 8.0 | 9.7 | 0.00 | 0.00 | 0.00 | 89 | 1010.3 |
| 20260906022936 | 25 | 54 | 4.8 | 11.3 | 0.00 | 0.00 | 0.00 | 89 | 1010.3 |
| 20260906022431 | 25 | 31 | 6.4 | 6.4 | 0.00 | 0.00 | 0.00 | 89 | 1010.2 |
| 20260906021926 | 25 | 42 | 4.8 | 6.4 | 0.00 | 0.00 | 0.00 | 89 | 1010.0 |
| 20260906021427 | 25 | 26 | 1.6 | 3.2 | 0.00 | 0.00 | 0.00 | 89 | 1010.1 |
| 20260906020926 | 25 | 41 | 3.2 | 3.2 | 0.00 | 0.00 | 0.00 | 88 | 1010.1 |
| 20260906020421 | 25 | 18 | 3.2 | 4.8 | 0.00 | 0.00 | 0.00 | 88 | 1009.9 |
| 20260906015921 | 25 | 24 | 1.6 | 3.2 | 0.00 | 0.00 | 0.00 | 87 | 1009.8 |
| 20260906015415 | 25 | 12 | 3.2 | 3.2 | 0.00 | 0.00 | 0.00 | 87 | 1009.9 |
| 20260906014915 | 26 | 356 | 4.8 | 4.8 | 0.00 | 0.00 | 0.00 | 86 | 1009.6 |
| 20260906014414 | 26 | 28 | 1.6 | 3.2 | 0.00 | 0.00 | 0.00 | 86 | 1009.5 |
| 20260906013911 | 26 | 51 | 1.6 | 3.2 | 0.00 | 0.00 | 0.00 | 85 | 1009.6 |
| 20260906013406 | 26 | 32 | 4.8 | 4.8 | 0.00 | 0.00 | 0.00 | 85 | 1009.6 |
| 20260906012902 | 26 | 38 | 4.8 | 4.8 | 0.00 | 0.00 | 0.00 | 85 | 1009.6 |
| 20260906012356 | 26 | 48 | 4.8 | 4.8 | 0.00 | 0.00 | 0.00 | 85 | 1009.6 |
| 20260906011856 | 26 | 47 | 4.8 | 4.8 | 0.00 | 0.00 | 0.00 | 85 | 1009.3 |
| 20260906011356 | 26 | 61 | 8.0 | 11.3 | 0.00 | 0.00 | 0.00 | 85 | 1009.4 |
| 20260906010852 | 26 | 12 | 6.4 | 6.4 | 0.00 | 0.00 | 0.00 | 85 | 1009.1 |
| 20260906010348 | 26 | 32 | 4.8 | 6.4 | 0.00 | 0.00 | 0.00 | 84 | 1009.2 |
| 20260906005843 | 26 | 33 | 3.2 | 4.8 | 0.00 | 0.00 | 0.00 | 84 | 1009.1 |
| 20260906005342 | 26 | 10 | 1.6 | 1.6 | 0.00 | 0.00 | 0.00 | 83 | 1009.1 |
| 20260906004842 | 26 | 26 | 1.6 | 1.6 | 0.00 | 0.00 | 0.00 | 82 | 1009.0 |
| 20260906004342 | 25 | 17 | 3.2 | 3.2 | 0.00 | 0.00 | 0.00 | 82 | 1009.0 |
| 20260906003837 | 25 | 15 | 1.6 | 1.6 | 0.00 | 0.00 | 0.00 | 82 | 1009.0 |
| 20260906003332 | 26 | 13 | 1.6 | 1.6 | 0.00 | 0.00 | 0.00 | 83 | 1008.8 |
| 20260906002827 | 26 | 13 | 0.0 | 0.0 | 0.00 | 0.00 | 0.00 | 81 | 1008.8 |
| 20260906002327 | 26 | 13 | 0.0 | 0.0 | 0.00 | 0.00 | 0.00 | 80 | 1009.0 |
| 20260906001823 | 27 | 13 | 0.0 | 0.0 | 0.00 | 0.00 | 0.00 | 78 | 1008.9 |
| 20260906001318 | 27 | 13 | 0.0 | 0.0 | 0.00 | 0.00 | 0.00 | 77 | 1008.7 |
| 20260906000813 | 27 | 13 | 0.0 | 0.0 | 0.00 | 0.00 | 0.00 | 75 | 1008.8 |
| 20260906000307 | 28 | 12 | 0.0 | 0.0 | 0.00 | 0.00 | 0.00 | 72 | 1008.8 |
| 20260905235802 | 28 | 13 | 0.0 | 0.0 | 0.00 | 0.00 | 0.00 | 72 | 1009.0 |
| 20260905235306 | 28 | 4 | 0.0 | 1.6 | 0.00 | 0.00 | 0.00 | 71 | 1008.8 |
| 20260905234757 | 28 | 39 | 0.0 | 0.0 | 0.00 | 0.00 | 0.00 | 71 | 1008.9 |
| 20260905234253 | 29 | 39 | 0.0 | 1.6 | 0.00 | 0.00 | 0.00 | 71 | 1009.0 |
| 20260905233748 | 30 | 39 | 3.2 | 3.2 | 0.00 | 0.00 | 0.00 | 73 | 1008.8 |
| 20260905233248 | 30 | 40 | 0.0 | 0.0 | 0.00 | 0.00 | 0.00 | 73 | 1008.9 |
| 20260905232747 | 30 | 39 | 3.2 | 3.2 | 0.00 | 0.00 | 0.00 | 69 | 1008.9 |
| 20260905232243 | 30 | 39 | 0.0 | 0.0 | 0.00 | 0.00 | 0.00 | 69 | 1008.8 |
| 20260905231739 | 30 | 39 | 1.6 | 1.6 | 0.00 | 0.00 | 0.00 | 69 | 1008.5 |
| 20260905231234 | 30 | 2 | 0.0 | 0.0 | 0.00 | 0.00 | 0.00 | 68 | 1008.7 |
| 20260905230730 | 30 | 5 | 0.0 | 0.0 | 0.00 | 0.00 | 0.00 | 68 | 1008.7 |
| 20260905230228 | 30 | 26 | 0.0 | 0.0 | 0.00 | 0.00 | 0.00 | 68 | 1008.7 |
| 20260905225728 | 29 | 24 | 1.6 | 1.6 | 0.00 | 0.00 | 0.00 | 68 | 1008.7 |
| 20260905225223 | 29 | 351 | 3.2 | 4.8 | 0.00 | 0.00 | 0.00 | 69 | 1008.4 |
| 20260905224722 | 28 | 307 | 3.2 | 4.8 | 0.00 | 0.00 | 0.00 | 71 | 1008.2 |
| 20260905224217 | 28 | 308 | 1.6 | 3.2 | 0.00 | 0.00 | 0.00 | 72 | 1008.4 |
| 20260905223713 | 28 | 7 | 3.2 | 3.2 | 0.00 | 0.00 | 0.00 | 72 | 1008.5 |
| 20260905223210 | 28 | 1 | 3.2 | 3.2 | 0.00 | 0.00 | 0.00 | 73 | 1008.7 |
| 20260905222705 | 28 | 13 | 3.2 | 3.2 | 0.00 | 0.00 | 0.00 | 73 | 1008.5 |
| 20260905222205 | 28 | 24 | 4.8 | 4.8 | 0.00 | 0.00 | 0.00 | 71 | 1008.2 |
| 20260905221700 | 29 | 49 | 8.0 | 9.7 | 0.00 | 0.00 | 0.00 | 70 | 1008.1 |
| 20260905221158 | 30 | 21 | 3.2 | 4.8 | 0.00 | 0.00 | 0.00 | 68 | 1008.4 |
| 20260905220653 | 31 | 24 | 9.7 | 11.3 | 0.00 | 0.00 | 0.00 | 66 | 1008.8 |
| 20260905220149 | 31 | 31 | 4.8 | 6.4 | 0.00 | 0.00 | 0.00 | 69 | 1008.3 |
| 20260905215648 | 31 | 313 | 1.6 | 3.2 | 0.00 | 0.00 | 0.00 | 67 | 1008.7 |
| 20260905215144 | 32 | 342 | 1.6 | 1.6 | 0.00 | 0.00 | 0.00 | 67 | 1008.0 |
| 20260905214640 | 32 | 345 | 0.0 | 0.0 | 0.00 | 0.00 | 0.00 | 67 | 1008.1 |
| 20260905214135 | 32 | 345 | 1.6 | 1.6 | 0.00 | 0.00 | 0.00 | 65 | 1008.4 |
| 20260905213630 | 32 | 357 | 3.2 | 4.8 | 0.00 | 0.00 | 0.00 | 64 | 1008.9 |
| 20260905213125 | 32 | 331 | 3.2 | 4.8 | 0.00 | 0.00 | 0.00 | 63 | 1008.5 |
| 20260905212621 | 33 | 351 | 4.8 | 6.4 | 0.00 | 0.00 | 0.00 | 61 | 1008.7 |
| 20260905212120 | 33 | 337 | 3.2 | 3.2 | 0.00 | 0.00 | 0.00 | 60 | 1008.3 |
| 20260905211615 | 34 | 10 | 3.2 | 3.2 | 0.00 | 0.00 | 0.00 | 59 | 1008.4 |
| 20260905211111 | 34 | 312 | 6.4 | 6.4 | 0.00 | 0.00 | 0.00 | 58 | 1008.4 |
| 20260905210607 | 34 | 343 | 3.2 | 4.8 | 0.00 | 0.00 | 0.00 | 57 | 1008.7 |
| 20260905205601 | 35 | 10 | 4.8 | 4.8 | 0.00 | 0.00 | 0.00 | 55 | 1008.5 |
| 20260905205100 | 35 | 0 | 1.6 | 3.2 | 0.00 | 0.00 | 0.00 | 57 | 1008.7 |
| 20260905204555 | 35 | 2 | 4.8 | 4.8 | 0.00 | 0.00 | 0.00 | 54 | 1008.8 |
| 20260905204050 | 35 | 23 | 3.2 | 3.2 | 0.00 | 0.00 | 0.00 | 56 | 1008.8 |
| 20260905203550 | 35 | 336 | 6.4 | 6.4 | 0.00 | 0.00 | 0.00 | 56 | 1008.9 |
| 20260905203045 | 35 | 337 | 1.6 | 1.6 | 0.00 | 0.00 | 0.00 | 58 | 1009.0 |
| 20260905202541 | 34 | 337 | 4.8 | 6.4 | 0.00 | 0.00 | 0.00 | 58 | 1009.0 |
| 20260905202036 | 33 | 325 | 8.0 | 11.3 | 0.00 | 0.00 | 0.00 | 57 | 1009.0 |
| 20260905201532 | 33 | 310 | 3.2 | 3.2 | 0.00 | 0.00 | 0.00 | 57 | 1009.0 |
| 20260905201031 | 35 | 33 | 9.7 | 11.3 | 0.00 | 0.00 | 0.00 | 56 | 1009.0 |
| 20260905200527 | 35 | 327 | 8.0 | 11.3 | 0.00 | 0.00 | 0.00 | 54 | 1009.0 |
| 20260905200026 | 35 | 342 | 3.2 | 3.2 | 0.00 | 0.00 | 0.00 | 54 | 1009.0 |
| 20260905195520 | 35 | 232 | 3.2 | 3.2 | 0.00 | 0.00 | 0.00 | 55 | 1009.1 |
| 20260905195016 | 35 | 13 | 4.8 | 6.4 | 0.00 | 0.00 | 0.00 | 56 | 1009.2 |
| 20260905194516 | 35 | 335 | 6.4 | 9.7 | 0.00 | 0.00 | 0.00 | 56 | 1009.2 |
| 20260905194016 | 35 | 337 | 8.0 | 11.3 | 0.00 | 0.00 | 0.00 | 56 | 1009.2 |
| 20260905193516 | 35 | 292 | 4.8 | 6.4 | 0.00 | 0.00 | 0.00 | 56 | 1009.3 |
| 20260905193011 | 34 | 311 | 3.2 | 3.2 | 0.00 | 0.00 | 0.00 | 57 | 1009.4 |
| 20260905192506 | 34 | 309 | 3.2 | 4.8 | 0.00 | 0.00 | 0.00 | 56 | 1009.6 |
| 20260905192003 | 34 | 358 | 3.2 | 4.8 | 0.00 | 0.00 | 0.00 | 57 | 1009.6 |
| 20260905191501 | 34 | 293 | 1.6 | 3.2 | 0.00 | 0.00 | 0.00 | 55 | 1009.5 |
| 20260905191000 | 34 | 226 | 6.4 | 6.4 | 0.00 | 0.00 | 0.00 | 55 | 1009.5 |
| 20260905190458 | 34 | 290 | 3.2 | 3.2 | 0.00 | 0.00 | 0.00 | 56 | 1009.6 |
| 20260905185957 | 33 | 215 | 4.8 | 4.8 | 0.00 | 0.00 | 0.00 | 58 | 1009.8 |
| 20260905185453 | 33 | 299 | 6.4 | 11.3 | 0.00 | 0.00 | 0.00 | 58 | 1009.7 |
| 20260905184951 | 33 | 214 | 3.2 | 4.8 | 0.00 | 0.00 | 0.00 | 59 | 1009.8 |
| 20260905184446 | 33 | 226 | 9.7 | 11.3 | 0.00 | 0.00 | 0.00 | 57 | 1010.0 |
| 20260905183945 | 33 | 203 | 8.0 | 12.9 | 0.00 | 0.00 | 0.00 | 57 | 1010.1 |
| 20260905183439 | 33 | 244 | 3.2 | 4.8 | 0.00 | 0.00 | 0.00 | 55 | 1010.1 |
| 20260905182934 | 33 | 296 | 3.2 | 4.8 | 0.00 | 0.00 | 0.00 | 56 | 1010.2 |
| 20260905182433 | 33 | 281 | 1.6 | 3.2 | 0.00 | 0.00 | 0.00 | 59 | 1010.4 |
| 20260905181929 | 33 | 232 | 8.0 | 11.3 | 0.00 | 0.00 | 0.00 | 55 | 1010.2 |
| 20260905181429 | 33 | 338 | 4.8 | 6.4 | 0.00 | 0.00 | 0.00 | 57 | 1010.5 |
| 20260905180928 | 33 | 284 | 4.8 | 6.4 | 0.00 | 0.00 | 0.00 | 55 | 1010.5 |
| 20260905180423 | 33 | 322 | 1.6 | 1.6 | 0.00 | 0.00 | 0.00 | 58 | 1010.6 |
| 20260905175918 | 33 | 259 | 4.8 | 6.4 | 0.00 | 0.00 | 0.00 | 56 | 1010.6 |
| 20260905175418 | 32 | 231 | 1.6 | 1.6 | 0.00 | 0.00 | 0.00 | 57 | 1010.5 |
| 20260905174913 | 32 | 203 | 6.4 | 9.7 | 0.00 | 0.00 | 0.00 | 57 | 1010.7 |
| 20260905174409 | 32 | 210 | 11.3 | 12.9 | 0.00 | 0.00 | 0.00 | 58 | 1010.6 |
| 20260905173904 | 32 | 224 | 3.2 | 3.2 | 0.00 | 0.00 | 0.00 | 56 | 1010.7 |
| 20260905173401 | 32 | 272 | 3.2 | 3.2 | 0.00 | 0.00 | 0.00 | 58 | 1010.6 |
| 20260905172855 | 31 | 295 | 3.2 | 4.8 | 0.00 | 0.00 | 0.00 | 60 | 1010.7 |
| 20260905172353 | 31 | 216 | 4.8 | 4.8 | 0.00 | 0.00 | 0.00 | 59 | 1010.8 |
| 20260905171849 | 31 | 221 | 3.2 | 3.2 | 0.00 | 0.00 | 0.00 | 58 | 1010.9 |
| 20260905171346 | 31 | 231 | 4.8 | 4.8 | 0.00 | 0.00 | 0.00 | 58 | 1011.0 |
| 20260905170842 | 31 | 236 | 1.6 | 3.2 | 0.00 | 0.00 | 0.00 | 61 | 1011.0 |
| 20260905170338 | 31 | 172 | 8.0 | 11.3 | 0.00 | 0.00 | 0.00 | 58 | 1011.1 |
| 20260905165837 | 31 | 6 | 1.6 | 3.2 | 0.00 | 0.00 | 0.00 | 61 | 1010.9 |
| 20260905165332 | 30 | 261 | 1.6 | 3.2 | 0.00 | 0.00 | 0.00 | 60 | 1011.0 |
| 20260905164832 | 31 | 173 | 9.7 | 11.3 | 0.00 | 0.00 | 0.00 | 59 | 1011.4 |
| 20260905164327 | 30 | 213 | 6.4 | 6.4 | 0.00 | 0.00 | 0.00 | 61 | 1011.4 |
| 20260905163823 | 30 | 194 | 6.4 | 9.7 | 0.00 | 0.00 | 0.00 | 60 | 1011.3 |
| 20260905163319 | 30 | 133 | 6.4 | 11.3 | 0.00 | 0.00 | 0.00 | 61 | 1011.3 |
| 20260905162815 | 30 | 234 | 8.0 | 9.7 | 0.00 | 0.00 | 0.00 | 62 | 1011.4 |
| 20260905162314 | 30 | 242 | 6.4 | 9.7 | 0.00 | 0.00 | 0.00 | 61 | 1011.3 |
| 20260905161809 | 29 | 238 | 6.4 | 9.7 | 0.00 | 0.00 | 0.00 | 61 | 1011.4 |
| 20260905161308 | 29 | 196 | 6.4 | 6.4 | 0.00 | 0.00 | 0.00 | 63 | 1011.3 |
| 20260905160807 | 29 | 217 | 8.0 | 11.3 | 0.00 | 0.00 | 0.00 | 63 | 1011.5 |
| 20260905160301 | 29 | 170 | 6.4 | 6.4 | 0.00 | 0.00 | 0.00 | 63 | 1011.4 |
| 20260905155756 | 29 | 215 | 3.2 | 3.2 | 0.00 | 0.00 | 0.00 | 65 | 1011.5 |
| 20260905155255 | 28 | 256 | 6.4 | 6.4 | 0.00 | 0.00 | 0.00 | 65 | 1011.4 |
| 20260905154754 | 28 | 194 | 4.8 | 6.4 | 0.00 | 0.00 | 0.00 | 65 | 1011.4 |
| 20260905154251 | 28 | 220 | 6.4 | 6.4 | 0.00 | 0.00 | 0.00 | 63 | 1011.3 |
| 20260905153746 | 28 | 201 | 9.7 | 12.9 | 0.00 | 0.00 | 0.00 | 63 | 1011.4 |
| 20260905153242 | 28 | 163 | 6.4 | 9.7 | 0.00 | 0.00 | 0.00 | 63 | 1011.6 |
| 20260905152737 | 28 | 185 | 1.6 | 1.6 | 0.00 | 0.00 | 0.00 | 67 | 1011.7 |
| 20260905152237 | 28 | 193 | 6.4 | 9.7 | 0.00 | 0.00 | 0.00 | 65 | 1011.8 |
| 20260905151736 | 28 | 186 | 4.8 | 4.8 | 0.00 | 0.00 | 0.00 | 65 | 1011.7 |
| 20260905151233 | 28 | 223 | 3.2 | 4.8 | 0.00 | 0.00 | 0.00 | 64 | 1011.7 |
| 20260905150732 | 27 | 189 | 1.6 | 3.2 | 0.00 | 0.00 | 0.00 | 65 | 1011.9 |
| 20260905150231 | 28 | 199 | 6.4 | 9.7 | 0.00 | 0.00 | 0.00 | 64 | 1011.8 |
| 20260905145729 | 27 | 332 | 1.6 | 1.6 | 0.00 | 0.00 | 0.00 | 66 | 1011.7 |
| 20260905145224 | 27 | 245 | 4.8 | 4.8 | 0.00 | 0.00 | 0.00 | 67 | 1011.8 |
| 20260905144723 | 27 | 234 | 3.2 | 3.2 | 0.00 | 0.00 | 0.00 | 68 | 1011.8 |
| 20260905144218 | 26 | 192 | 8.0 | 11.3 | 0.00 | 0.00 | 0.00 | 69 | 1011.8 |
| 20260905143717 | 27 | 225 | 4.8 | 6.4 | 0.00 | 0.00 | 0.00 | 69 | 1011.8 |
| 20260905143217 | 26 | 40 | 0.0 | 0.0 | 0.00 | 0.00 | 0.00 | 71 | 1011.7 |
| 20260905142715 | 26 | 172 | 6.4 | 6.4 | 0.00 | 0.00 | 0.00 | 71 | 1012.0 |
| 20260905142211 | 26 | 236 | 8.0 | 11.3 | 0.00 | 0.00 | 0.00 | 72 | 1012.1 |
| 20260905141706 | 26 | 160 | 6.4 | 9.7 | 0.00 | 0.00 | 0.00 | 71 | 1012.0 |
| 20260905141202 | 26 | 229 | 6.4 | 6.4 | 0.00 | 0.00 | 0.00 | 73 | 1012.0 |
| 20260905140657 | 26 | 35 | 0.0 | 0.0 | 0.00 | 0.00 | 0.00 | 74 | 1012.2 |
| 20260905140157 | 25 | 211 | 3.2 | 4.8 | 0.00 | 0.00 | 0.00 | 73 | 1012.1 |
| 20260905135652 | 25 | 258 | 1.6 | 3.2 | 0.00 | 0.00 | 0.00 | 75 | 1012.0 |
| 20260905135148 | 25 | 231 | 3.2 | 6.4 | 0.00 | 0.00 | 0.00 | 77 | 1012.1 |
| 20260905134647 | 24 | 14 | 1.6 | 1.6 | 0.00 | 0.00 | 0.00 | 78 | 1012.1 |
| 20260905134146 | 23 | 183 | 1.6 | 3.2 | 0.00 | 0.00 | 0.00 | 79 | 1011.9 |
| 20260905133642 | 23 | 321 | 3.2 | 4.8 | 0.00 | 0.00 | 0.00 | 80 | 1011.7 |
| 20260905133142 | 23 | 236 | 1.6 | 3.2 | 0.00 | 0.00 | 0.00 | 81 | 1011.8 |
| 20260905132641 | 23 | 322 | 1.6 | 1.6 | 0.00 | 0.00 | 0.00 | 82 | 1011.9 |
| 20260905132136 | 23 | 313 | 1.6 | 1.6 | 0.00 | 0.00 | 0.00 | 82 | 1011.9 |
| 20260905131631 | 23 | 23 | 0.0 | 0.0 | 0.00 | 0.00 | 0.00 | 83 | 1011.9 |
| 20260905131127 | 23 | 343 | 1.6 | 3.2 | 0.00 | 0.00 | 0.00 | 83 | 1011.9 |
| 20260905130627 | 23 | 245 | 4.8 | 4.8 | 0.00 | 0.00 | 0.00 | 83 | 1012.2 |
| 20260905130126 | 23 | 15 | 1.6 | 1.6 | 0.00 | 0.00 | 0.00 | 83 | 1012.1 |
| 20260905125621 | 23 | 218 | 3.2 | 3.2 | 0.00 | 0.00 | 0.00 | 83 | 1012.3 |
| 20260905125117 | 23 | 76 | 1.6 | 3.2 | 0.00 | 0.00 | 0.00 | 84 | 1012.3 |
| 20260905124613 | 23 | 274 | 1.6 | 3.2 | 0.00 | 0.00 | 0.00 | 85 | 1012.4 |
| 20260905124109 | 22 | 0 | 4.8 | 6.4 | 0.00 | 0.00 | 0.00 | 87 | 1012.2 |
| 20260905123603 | 22 | 333 | 3.2 | 4.8 | 0.00 | 0.00 | 0.00 | 86 | 1012.0 |
| 20260905123101 | 22 | 123 | 9.7 | 12.9 | 0.00 | 0.00 | 0.00 | 84 | 1012.0 |
| 20260905122601 | 23 | 122 | 4.8 | 6.4 | 0.00 | 0.00 | 0.00 | 85 | 1012.1 |
| 20260905122101 | 23 | 342 | 1.6 | 3.2 | 0.00 | 0.00 | 0.00 | 86 | 1012.1 |
| 20260905121555 | 23 | 358 | 4.8 | 4.8 | 0.00 | 0.00 | 0.00 | 87 | 1012.1 |
| 20260905121051 | 23 | 245 | 1.6 | 4.8 | 0.00 | 0.00 | 0.00 | 94 | 1011.9 |
| 20260905120550 | 23 | 65 | 0.0 | 1.6 | 0.00 | 0.00 | 0.00 | 95 | 1011.8 |
| 20260905120045 | 23 | 22 | 0.0 | 0.0 | 0.00 | 0.00 | 0.00 | 95 | 1011.4 |
| 20260905115544 | 23 | 261 | 3.2 | 3.2 | 0.00 | 0.00 | 0.00 | 97 | 1011.4 |
| 20260905115039 | 23 | 59 | 1.6 | 3.2 | 0.00 | 0.00 | 0.00 | 97 | 1011.5 |
| 20260905114538 | 23 | 94 | 6.4 | 12.9 | 0.00 | 0.00 | 0.00 | 97 | 1011.3 |
| 20260905114037 | 23 | 80 | 9.7 | 14.5 | 0.00 | 0.00 | 0.00 | 97 | 1011.5 |
| 20260905113532 | 23 | 39 | 0.0 | 0.0 | 0.00 | 0.00 | 0.00 | 97 | 1010.5 |
| 20260905113028 | 23 | 38 | 0.0 | 0.0 | 0.00 | 0.00 | 0.00 | 97 | 1010.6 |
| 20260905112523 | 23 | 319 | 0.0 | 1.6 | 0.00 | 0.00 | 0.00 | 97 | 1010.8 |
| 20260905112019 | 23 | 316 | 1.6 | 3.2 | 0.00 | 0.00 | 0.00 | 97 | 1010.5 |
| 20260905111519 | 22 | 287 | 1.6 | 1.6 | 0.00 | 0.00 | 0.00 | 97 | 1010.4 |
| 20260905111018 | 22 | 222 | 0.0 | 0.0 | 0.00 | 0.00 | 0.00 | 97 | 1010.3 |
| 20260905110517 | 22 | 222 | 0.0 | 0.0 | 0.00 | 0.00 | 0.00 | 96 | 1010.3 |
| 20260905110013 | 23 | 222 | 0.0 | 0.0 | 0.00 | 0.00 | 0.00 | 96 | 1010.3 |
| 20260905105507 | 23 | 222 | 0.0 | 0.0 | 0.00 | 0.00 | 0.00 | 96 | 1010.2 |
| 20260905105007 | 23 | 222 | 0.0 | 0.0 | 0.00 | 0.00 | 0.00 | 97 | 1010.2 |
| 20260905104503 | 23 | 222 | 0.0 | 0.0 | 0.00 | 0.00 | 0.00 | 96 | 1010.3 |
| 20260905104002 | 23 | 222 | 0.0 | 0.0 | 0.00 | 0.00 | 0.00 | 96 | 1010.1 |
| 20260905103458 | 23 | 222 | 0.0 | 0.0 | 0.00 | 0.00 | 0.00 | 96 | 1010.2 |
| 20260905102954 | 23 | 224 | 1.6 | 1.6 | 0.00 | 0.00 | 0.00 | 96 | 1010.0 |
| 20260905102450 | 23 | 224 | 0.0 | 0.0 | 0.00 | 0.00 | 0.00 | 96 | 1009.9 |
| 20260905101945 | 23 | 224 | 0.0 | 1.6 | 0.00 | 0.00 | 0.00 | 96 | 1010.1 |
| 20260905101444 | 23 | 224 | 1.6 | 1.6 | 0.00 | 0.00 | 0.00 | 97 | 1009.9 |
| 20260905100943 | 23 | 224 | 1.6 | 1.6 | 0.00 | 0.00 | 0.00 | 96 | 1010.3 |
| 20260905100439 | 23 | 224 | 1.6 | 1.6 | 0.00 | 0.00 | 0.00 | 96 | 1010.3 |
| 20260905095938 | 23 | 224 | 0.0 | 0.0 | 0.00 | 0.00 | 0.00 | 97 | 1010.2 |
| 20260905095438 | 23 | 229 | 3.2 | 3.2 | 0.00 | 0.00 | 0.00 | 97 | 1010.2 |
| 20260905094933 | 23 | 232 | 3.2 | 3.2 | 0.00 | 0.00 | 0.00 | 97 | 1010.1 |
| 20260905094429 | 23 | 272 | 0.0 | 0.0 | 0.00 | 0.00 | 0.00 | 97 | 1010.2 |
| 20260905093927 | 23 | 292 | 0.0 | 0.0 | 0.00 | 0.00 | 0.00 | 96 | 1010.3 |
| 20260905093423 | 23 | 292 | 0.0 | 0.0 | 0.00 | 0.00 | 0.00 | 96 | 1010.2 |
| 20260905092918 | 23 | 292 | 0.0 | 0.0 | 0.00 | 0.00 | 0.00 | 96 | 1010.3 |
| 20260905092413 | 23 | 292 | 0.0 | 0.0 | 0.00 | 0.00 | 0.00 | 96 | 1010.2 |
| 20260905091909 | 23 | 292 | 0.0 | 0.0 | 0.00 | 0.00 | 0.00 | 96 | 1010.2 |
| 20260905091409 | 23 | 291 | 0.0 | 0.0 | 0.00 | 0.00 | 0.00 | 96 | 1010.1 |
| 20260905090908 | 23 | 291 | 0.0 | 0.0 | 0.00 | 0.00 | 0.00 | 95 | 1010.2 |
| 20260905090404 | 23 | 291 | 0.0 | 0.0 | 0.00 | 0.00 | 0.00 | 95 | 1010.1 |
| 20260905085903 | 23 | 291 | 0.0 | 0.0 | 0.00 | 0.00 | 0.00 | 95 | 1010.1 |
| 20260905085403 | 23 | 292 | 0.0 | 0.0 | 0.00 | 0.00 | 0.00 | 95 | 1010.0 |
| 20260905084859 | 24 | 292 | 0.0 | 0.0 | 0.00 | 0.00 | 0.00 | 95 | 1010.1 |
| 20260905084357 | 24 | 291 | 0.0 | 0.0 | 0.00 | 0.00 | 0.00 | 95 | 1009.7 |
| 20260905083853 | 24 | 291 | 0.0 | 0.0 | 0.00 | 0.00 | 0.00 | 95 | 1009.8 |
| 20260905083348 | 24 | 291 | 0.0 | 0.0 | 0.00 | 0.00 | 0.00 | 95 | 1009.8 |
| 20260905082844 | 24 | 321 | 1.6 | 1.6 | 0.00 | 0.00 | 0.00 | 95 | 1009.7 |
| 20260905082340 | 24 | 310 | 0.0 | 1.6 | 0.00 | 0.00 | 0.00 | 96 | 1009.8 |
| 20260905081835 | 23 | 296 | 1.6 | 1.6 | 0.00 | 0.00 | 0.00 | 96 | 1009.5 |
| 20260905081330 | 23 | 260 | 3.2 | 3.2 | 0.00 | 0.00 | 0.00 | 96 | 1009.8 |
| 20260905080829 | 23 | 301 | 0.0 | 0.0 | 0.00 | 0.00 | 0.00 | 96 | 1009.7 |
| 20260905080324 | 23 | 300 | 0.0 | 0.0 | 0.00 | 0.00 | 0.00 | 97 | 1009.6 |